Starlink 31497

operational
NORAD ID: 60592 Int'l Des: 2024-150 Owner: SPXS Country: US Constellation: starlink
LEOCIRCULAR

About Starlink 31497

Description loading...

Live Position

Loading 3D Globe...

Upcoming Passes

Altitude History

Altitude vs Time

uPlot chart will show altitude changes over time

Two-Line Element Set

1 60592U 24150K 25305.95361535 -.00001327 00000-0 -32698-4 0 9993
2 60592 53.1599 180.4048 0001391 91.4592 268.6569 15.30173278 68480
Epoch: Nov 1, 2025 • Age: 21 hours

Current Status

Altitude 477.3 km
Velocity 7.63 km/s
Sub-Earth Point 35.07°N, 126.32°W
Launch Date Aug 20, 2024
Age 1.2 years
Type internet

Technical Details

Classification Payload
Mass 730.00 kg
Dry Mass 700.00 kg
Total Mass 730.00 kg
Length 0.30 m
Diameter 4.10 m
Span 29.00 m
Shape Box + pan
Manufacturer SPXS
Bus Type Starlink V2M
Phase Status In Orbit
Owner/State SPXS/US

Large Constellations

Loading constellations...